Location: Vassar Physics Lab
(41.6843°N, 73.8954°W)
Time: 02:35:59
(UTC-04:00)

CZ-4B DEB - Visible Passes

Search period start: 21 August 2017 00:00
Search period end: 31 August 2017 00:00
Orbit: 842 x 861 km, 99.0° (Epoch: 20 August)

Date Brightness Start Highest point End Pass type
(mag) Time Alt. Az. Time Alt. Az. Time Alt. Az.
21 Aug 6.3 04:01:12 10° NE 04:05:31 23° E 04:09:47 10° SE visible
21 Aug 4.6 05:41:08 10° N 05:46:26 48° WNW 05:51:40 10° SW visible
22 Aug 6.6 03:50:11 10° NE 03:53:53 18° E 03:57:34 10° SE visible
22 Aug 4.3 05:29:33 10° N 05:35:00 61° WNW 05:40:23 10° SSW visible
23 Aug 6.8 03:39:26 10° ENE 03:42:16 14° E 03:45:03 10° ESE visible
23 Aug 4.2 05:18:00 10° N 05:23:33 76° WNW 05:29:00 10° SSW visible
24 Aug 7.0 03:29:29 10° ENE 03:30:36 11° E 03:31:44 10° E visible
24 Aug 4.3 05:06:30 10° NNE 05:12:03 86° ESE 05:17:33 10° SSW visible
25 Aug 4.5 04:55:03 10° NNE 05:00:34 69° ESE 05:06:01 10° S visible
26 Aug 4.9 04:43:38 10° NNE 04:49:02 54° E 04:54:24 10° S visible
27 Aug 5.3 04:32:15 10° NNE 04:37:30 43° E 04:42:40 10° S visible
28 Aug 5.7 04:20:58 10° NNE 04:25:57 34° E 04:30:52 10° SSE visible
29 Aug 6.1 04:09:45 10° NE 04:14:22 27° E 04:18:56 10° SSE visible
30 Aug 6.4 03:58:38 10° NE 04:02:46 21° E 04:06:52 10° SE visible
30 Aug 4.5 05:38:25 10° N 05:43:44 51° WNW 05:49:01 10° SW visible
